Retour au catalogue

FENGYUN 1C DEB

ActifSSO
NORAD 29962·DEBRIS·🇨🇳 China

Lancé May 10, 1999 depuis Taiyuan Satellite Launch Center

Loading…

Prochains Passages (prochaines 24 heures)

TLE

FraisSource: Space-Track

Époque: Sep 13, 2026, 22:25 UTC

1 29962U 99025KL  26256.93442698  .00000012  00000-0  30792-4 0  9997
2 29962  98.7690 261.9719 0110374 165.8604 261.3184 14.07316856  8688

Suivez FENGYUN 1C DEB en temps réel avec AllMySat

Download on the App Store